World > North America > United States > Oregon

Hourly Triangle Lake, OR Regional Weather

Feedback E-mail the Weather

Quick WX

Triangle Lake, OR Weather Maps

°F °C°F °C
Triangle Lake Weather Map
UTC Time: 7/3/2022, 08:00
Your Time:

Triangle Lake, OR Regional Weather

Expires:202207030800;;594438
ASUS46 KPQR 030710
RWROR 

OREGON REGIONAL WEATHER ROUNDUP
NATIONAL WEATHER SERVICE PORTLAND OR
1200 AM PDT SUN JUL 03 2022

NOTE: "FAIR" INDICATES FEW OR NO CLOUDS BELOW 12,000 FEET WITH
NO SIGNIFICANT WEATHER AND/OR OBSTRUCTIONS TO VISIBILITY.


ORZ001>013-030800-
NORTHWEST OREGON

  
CITY           SKY/WX    TMP DP  RH WIND       PRES   REMARKS
ASTORIA        CLOUDY    58  51  78 W5        29.97S                  
TILLAMOOK      CLOUDY    55  52  88 S5        29.99S                  
NEWPORT        CLOUDY    54  52  94 CALM      30.01F                  
FLORENCE       CLOUDY    55  52  88 N6        29.99S                  
PORTLAND       CLOUDY    62  51  67 N5        29.94S                  
VANCOUVER WA   CLOUDY    61  51  70 N7        29.94S                  
SCAPPOOSE      CLOUDY    60  51  72 N7        29.93S                  
HILLSBORO      CLOUDY    58  50  75 NW8       29.93F                  
AURORA         MOCLDY    60  51  72 N8        29.94S                  
MCMINNVILLE    CLOUDY    57  53  86 SW7       29.93S                  
SALEM          CLOUDY    60  51  72 W6        29.93S                  
CORVALLIS      PTCLDY    56  51  84 NW9       29.96R                  
EUGENE         MOCLDY    58  52  80 SW6       29.95S                  
CRESWELL       CLOUDY    59  54  82 MISG      29.94S                  
$$


SKY/WX - Weather  TMP - Temperature  DP - Dew Point  RH - Humidity
WIND - Wind Direction/Speed PRES - Barometric Pressure VSB - Visibility
WCI - Wind Chill Index E13G22 Wind - East Wind 13 mph/Gusts of 22 mph

Trending Headlines

Triangle Lake Radar Loop



Triangle Lake Quick Facts


National Two Day Weather Forecast


E-mail the Triangle Lake Weather Forecast

Voice your opinion or tell us about page issues...